Flag for Taiwan Weather past 2 weeks in Taichung, Taiwan

Now
86 °F

Broken clouds.


Feels Like: 92 °F
Forecast: 81 / 93 °F
Wind: 16 mph from Southwest

Location: Chiang Kai Shek

Current Time: Aug 20, 2014 at 4:59:28 PM

Latest Report: Aug 20, 2014 at 4:30 PM


Visibility: N/A

Pressure: 29.80 "Hg

Humidity: 62%

Dew point: 72 °F

Location of TaichungLocation

Historic Weather in Taichung — Graph

°F

Taichung temperature yesterday

Maximum temperature yesterday: 90 °F (at 12:00 PM)
Minimum temperature yesterday: 77 °F (at 2:00 AM)
Average temperature yesterday: 81 °F

Past Weeks' High & Low Weather Summary

 TemperatureHumidityPressure
High97 °F (Aug 14, 1:00 PM)94% (Aug 12, 2:00 AM)29.86 "Hg (Aug 12, 2:00 AM)
Low75 °F (Aug 18, 6:56 PM)50% (Aug 8, 12:00 PM)29.53 "Hg (Aug 8, 3:30 PM)
Average85 °F74%29.69 "Hg
* Reported Aug 5 4:00 PM — Aug 20 4:00 PM, Taichung, Weather by CustomWeather, © 2014

Note: Actual official high and low records may vary slightly from our data, if they occured in-between our weather recording intervals... More about our weather records

Advertising

Taichung weather history for previous 24 hours

 ConditionsComfort  
Time TempWeatherWind HumidityBarometerVisibility
4:00 PM
Aug 20
88 °FBroken clouds.16 mph62%29.80 "HgN/A
3:30 PM86 °FPartly sunny.17 mph66%29.80 "HgN/A
3:00 PM88 °FPartly sunny.14 mph66%29.80 "HgN/A
2:30 PM88 °FPartly sunny.16 mph62%29.80 "HgN/A
2:00 PM86 °FPartly sunny.15 mph66%29.80 "HgN/A
1:30 PM86 °FPartly sunny.14 mph66%29.80 "HgN/A
1:00 PM88 °FPartly sunny.17 mph62%29.80 "HgN/A
12:30 PM88 °FBroken clouds.15 mph62%29.80 "HgN/A
12:00 PM88 °FBroken clouds.8 mph62%29.83 "HgN/A
11:30 AM88 °FBroken clouds.6 mph62%29.83 "HgN/A
11:00 AM88 °FBroken clouds.8 mph59%29.83 "HgN/A
10:30 AM90 °FBroken clouds.6 mph55%29.83 "HgN/A
10:00 AM88 °FPartly sunny.6 mph59%29.83 "HgN/A
9:30 AM86 °FPartly sunny.7 mph66%29.83 "HgN/A
9:00 AM84 °FPartly sunny.9 mph66%29.83 "HgN/A
8:30 AM84 °FPartly sunny.12 mph66%29.83 "HgN/A
8:00 AM82 °FPartly sunny.14 mph70%29.83 "HgN/A
7:30 AM81 °FPartly sunny.13 mph74%29.83 "HgN/A
7:00 AM81 °FPartly sunny.13 mph74%29.80 "HgN/A
6:30 AM79 °FPartly sunny.12 mph79%29.80 "HgN/A
6:00 AM79 °FBroken clouds.12 mph79%29.80 "HgN/A
5:30 AM79 °FPartly sunny.10 mph79%29.80 "HgN/A
5:00 AM77 °FPassing clouds.7 mph83%29.80 "HgN/A
4:30 AM79 °FPassing clouds.6 mph84%29.80 "HgN/A
4:00 AM79 °FPassing clouds.8 mph84%29.77 "HgN/A
3:30 AM79 °FPassing clouds.7 mph84%29.80 "HgN/A
3:00 AM77 °FPassing clouds.6 mph89%29.80 "HgN/A
2:30 AM79 °FPassing clouds.5 mph84%29.80 "HgN/A
2:00 AM77 °FPassing clouds.6 mph89%29.80 "HgN/A
1:30 AM81 °FPassing clouds.8 mph79%29.80 "HgN/A
1:00 AM81 °FPassing clouds.8 mph84%29.83 "HgN/A
12:30 AM81 °FPassing clouds.6 mph84%29.83 "HgN/A
12:00 AM81 °FPassing clouds.6 mph84%29.83 "Hg5 mi
11:30 PM
Aug 19
79 °FSprinkles. Passing clouds.6 mph89%29.83 "Hg5 mi
11:00 PM81 °FSprinkles. Passing clouds.7 mph84%29.83 "Hg5 mi
10:30 PM79 °FSprinkles. Passing clouds.3 mph89%29.83 "Hg4 mi
10:02 PM79 °FRain showers. Passing clouds.5 mph89%29.86 "Hg1 mi
9:30 PM79 °FThundershowers. Passing clouds.5 mph89%29.86 "Hg2 mi
9:00 PM79 °FThundershowers. Passing clouds.6 mph89%29.83 "Hg4 mi
8:57 PM79 °FThundershowers. Passing clouds.6 mph89%29.83 "Hg4 mi
8:30 PM79 °FThunderstorms. Passing clouds.3 mph89%29.83 "Hg2 mi
7:56 PM79 °FStrong thunderstorms. Passing clouds.10 mph89%29.83 "Hg1 mi
7:30 PM81 °FThundershowers. Passing clouds.6 mph84%29.83 "Hg5 mi
7:00 PM79 °FThundershowers. Passing clouds.5 mph89%29.80 "Hg5 mi
6:30 PM79 °FThundershowers. Passing clouds.6 mph89%29.80 "Hg4 mi
6:04 PM79 °FThundershowers. Fog.3 mph89%29.80 "Hg2 mi
5:48 PM79 °FThundershowers. Partly sunny.6 mph89%29.80 "Hg4 mi
5:30 PM79 °FSprinkles. Partly sunny.8 mph89%29.80 "Hg4 mi
5:00 PM79 °FSprinkles. Partly sunny.9 mph89%29.80 "Hg4 mi
4:54 PM79 °FSprinkles. Partly sunny.9 mph84%29.80 "Hg4 mi
4:30 PM79 °FThunderstorms. Partly sunny.10 mph89%29.77 "Hg3 mi
4:00 PM79 °FThunderstorms. Partly sunny.9 mph89%29.80 "Hg3 mi
Weather by CustomWeather, © 2014

See weather overviewHow to use our weather pages